Voltar ao catálogo

STARLINK-3077

AtivoComunicaçõesVLEO
NORAD 49133·PAYLOAD·🇺🇸 United States

Lançado Sep 14, 2021 de Vandenberg Space Force Base

Loading…

Próximas Passagens (próximas 24 horas)

TLE

AtualizadoSource: CelesTrak SupGP

Época: Sep 14, 2026, 20:59 UTC

1 49133C 21082D   26257.87479167 -.00034378  00000+0 -28814-2 0  2572
2 49133  70.0017 177.4520 0002938 264.8067 211.2456 14.98343321    18

Acompanhe STARLINK-3077 em tempo real com AllMySat

Download on the App Store